Wind_Speed
60 61 61 62 64 65 69 72 66 63 61 65 65 66 68 69 72 80 85 86 87 87 85 83 81 76 66 41 36 47 48 47 42 53 50 48 50 52 55 54 59 57 50
69 65 70 73 70 72 73 75 74 69 70 67 73 75 77 79 83 86 89 90 90 91 92 89 85 77 58 43 42 55 50 50 52 57 57 52 51 49 55 54 52 56 57
65 71 75 77 76 77 78 76 78 77 73 76 79 81 85 89 91 92 93 94 94 94 94 88 80 68 56 44 49 50 60 57 60 62 61 57 49 50 55 54 49 52 52
74 73 73 80 78 80 84 82 76 77 79 81 84 89 92 95 97 98 99 98 98 97 90 78 68 61 53 40 45 50 52 63 61 56 56 53 48 52 54 53 48 41 42
73 77 80 77 86 88 80 77 79 82 87 89 93 95 97 99 99 98 101 102 102 87 74 67 58 53 49 45 38 39 49 55 61 55 52 52 49 53 56 56 53 49 44
72 80 85 91 90 84 81 85 88 89 93 96 98 99 99 96 98 102 105 99 81 72 64 58 51 48 47 45 38 42 46 49 54 54 56 51 49 52 56 58 55 51 52
88 88 90 88 85 86 89 90 93 95 97 99 100 98 98 101 103 106 91 77 69 63 55 52 48 46 44 37 36 41 44 45 50 51 54 55 52 50 53 59 55 55 50
92 92 89 88 91 92 93 95 97 100 99 98 97 99 103 105 102 85 77 64 59 55 50 47 44 45 37 33 38 41 47 48 51 51 50 52 51 51 52 57 58 58 53
88 90 94 93 95 97 95 98 99 96 97 97 100 102 103 91 79 69 61 57 52 50 45 43 42 43 38 31 29 46 50 50 45 49 49 53 53 55 54 57 59 61 58
92 93 95 98 96 98 97 95 95 96 97 99 99 102 82 77 67 59 53 51 48 44 41 39 42 44 40 36 40 49 51 50 50 50 52 53 53 55 59 59 61 61 64
95 96 95 97 97 95 94 94 96 99 101 100 96 87 81 70 62 53 48 47 44 36 35 34 42 45 45 41 40 45 49 52 50 50 54 54 54 54 60 62 63 66 66
96 97 98 97 94 94 93 98 102 101 98 96 86 79 67 59 56 50 47 45 42 35 29 30 39 43 45 43 39 41 46 49 49 46 48 53 57 57 58 61 67 66 69
98 97 93 91 91 94 100 100 93 93 91 81 69 56 55 53 51 46 44 43 40 32 26 26 31 36 40 40 41 41 39 43 47 49 48 45 53 61 60 59 63 72 73
93 89 91 93 96 100 93 91 94 83 73 58 53 51 51 46 43 43 39 42 38 31 27 25 28 26 38 38 39 31 36 46 57 59 54 48 48 56 61 65 60 63 71
89 90 90 94 95 89 84 88 72 72 56 48 49 47 43 42 39 37 35 36 37 34 31 34 34 32 39 32 29 29 46 45 47 51 47 46 48 52 56 62 64 64 66
89 90 94 94 83 84 87 83 70 61 53 49 44 41 41 40 39 35 31 32 35 35 35 45 48 39 42 38 37 55 50 46 51 52 56 59 60 58 56 58 63 67 65
94 95 89 84 87 85 80 73 65 58 51 52 51 47 44 41 39 38 34 33 34 34 37 41 51 51 54 53 48 60 67 65 51 50 59 68 66 64 62 64 68 69 69
89 87 86 83 80 80 81 65 67 60 49 49 52 53 46 43 41 41 39 38 39 39 39 40 45 55 64 69 69 67 67 65 62 67 71 66 65 65 66 62 65 68 69
88 83 81 77 80 82 67 62 68 52 50 52 52 52 57 56 52 50 48 47 44 44 46 46 46 50 59 64 71 72 74 70 68 69 68 67 64 68 71 71 67 66 65
72 75 78 78 78 71 66 67 73 54 53 56 57 54 56 61 66 60 59 61 63 58 53 49 52 52 53 55 58 61 65 65 68 66 66 71 71 71 69 66 68 64 61
76 78 78 77 74 71 72 72 66 54 52 54 54 53 53 54 56 60 54 51 54 57 56 58 53 50 52 56 60 63 64 61 59 59 58 54 53 52 58 64 75 73 64
79 79 78 73 73 76 74 59 52 49 48 50 51 51 50 49 47 44 40 36 38 42 48 51 58 59 51 48 50 51 51 53 53 52 46 43 43 49 52 59 64 64 66
71 68 71 75 68 55 49 45 46 46 46 47 50 49 45 38 35 34 34 31 26 26 31 41 47 52 57 54 49 50 50 53 49 47 45 38 36 35 37 42 57 68 69
51 48 44 43 43 43 41 40 42 42 44 47 49 40 36 30 24 21 22 23 18 14 18 27 37 43 48 55 58 57 57 56 55 50 50 45 39 42 47 47 48 49 54
36 34 35 36 37 35 35 36 38 40 44 47 38 32 28 28 25 25 20 16 15 13 13 16 24 33 41 46 50 53 54 54 51 50 53 46 48 49 52 48 54 55 57
32 32 32 32 32 33 35 37 39 43 46 37 31 31 29 27 28 27 23 20 16 16 17 19 22 25 31 35 37 38 40 45 49 53 56 53 54 56 57 58 59 61 64
Wind_Direction
306 305 306 307 309 312 315 315 311 310 308 309 309 310 311 309 305 307 310 311 312 311 309 308 307 306 306 290 261 245 238 246 259 271 265 250 249 247 248 245 244 241 239
301 301 304 308 310 312 312 313 310 308 307 309 310 310 312 310 307 306 307 307 307 306 305 303 302 300 296 287 263 244 240 244 253 262 264 251 245 245 243 245 244 239 239
290 297 303 306 305 305 306 305 305 305 305 307 308 309 306 305 306 306 305 304 303 302 301 299 297 292 287 280 260 255 247 249 256 255 258 251 246 246 239 242 243 239 243
288 293 298 300 299 301 301 301 299 301 303 303 303 304 305 304 304 303 303 302 302 301 298 293 287 283 280 267 252 263 260 248 253 254 254 254 250 241 238 238 239 240 244
283 286 293 296 299 298 297 297 299 301 302 303 305 305 303 303 303 302 301 301 300 296 289 285 279 275 267 261 260 270 271 259 253 251 255 256 250 241 237 234 240 238 233
283 284 293 295 296 297 297 299 301 303 303 304 303 302 302 301 300 300 299 299 294 288 281 275 271 264 257 253 253 257 259 257 254 249 248 255 254 242 238 235 238 238 234
294 293 293 293 294 295 298 300 300 301 301 300 300 300 300 300 301 302 300 296 288 281 276 268 264 259 253 251 255 258 265 256 259 256 249 250 255 250 240 234 235 235 229
291 291 291 293 295 297 298 300 301 300 302 302 302 302 302 303 303 299 296 289 283 278 273 265 257 250 244 243 254 256 259 255 255 255 252 249 246 250 244 235 234 232 226
288 291 295 296 297 299 300 301 303 303 302 302 302 304 304 303 301 297 291 286 282 275 266 259 249 244 233 231 250 264 257 254 256 254 252 249 247 244 245 237 234 229 220
290 291 293 296 297 300 302 302 302 301 301 304 305 305 301 302 300 296 286 282 279 273 265 253 242 236 222 223 232 250 254 258 258 259 255 253 253 246 243 241 238 235 227
289 291 293 297 300 300 299 300 300 302 304 304 303 301 301 301 300 296 284 276 277 270 261 245 237 228 218 218 233 245 252 254 257 262 258 255 251 251 246 244 243 239 236
290 295 297 298 298 297 298 300 302 303 303 304 302 301 299 299 299 293 280 272 273 267 260 246 227 220 214 217 232 244 252 255 260 266 266 257 252 251 251 249 243 243 242
295 296 296 296 296 297 301 303 302 304 304 302 301 298 298 298 296 291 280 269 268 263 252 238 215 214 217 225 235 243 252 260 261 267 267 267 258 252 251 253 250 245 246
294 293 295 296 299 302 302 303 305 305 303 302 300 299 297 295 293 291 281 268 265 257 238 219 210 222 215 231 241 250 267 270 271 271 269 261 260 256 252 252 253 253 248
292 294 295 299 302 301 302 306 303 307 300 299 302 302 298 296 292 288 285 271 262 251 229 198 195 208 225 212 225 252 251 253 255 253 255 265 265 260 256 252 252 251 253
292 294 295 300 298 300 302 305 308 306 300 298 296 302 301 294 291 285 280 271 261 254 237 211 215 213 205 209 214 232 234 239 245 257 254 260 266 264 257 254 254 252 251
293 294 296 296 298 299 302 305 298 305 295 295 293 293 294 295 295 287 277 270 266 257 248 233 221 211 206 206 218 239 237 246 259 249 260 269 270 267 261 256 254 258 254
291 292 294 294 300 301 304 304 305 306 289 291 295 297 293 289 289 286 282 273 263 257 252 245 233 226 223 220 231 239 245 248 254 257 265 266 265 265 261 253 259 259 258
291 292 292 295 299 302 304 307 313 299 287 288 288 293 295 292 286 282 279 274 270 263 254 247 242 236 233 236 235 240 244 252 256 262 265 265 263 261 260 260 256 256 257
289 289 291 296 300 302 302 305 308 297 287 287 289 286 288 290 288 279 276 274 272 265 258 254 248 244 240 239 243 242 248 252 258 260 263 266 264 259 255 251 255 258 248
291 292 294 295 297 302 304 304 303 296 294 293 294 295 295 292 288 289 286 276 267 261 255 246 247 248 245 244 245 248 250 253 256 265 273 265 259 256 253 255 253 256 244
289 289 290 294 294 297 300 299 297 296 298 299 301 302 303 303 301 300 296 286 273 261 252 246 240 242 245 246 247 246 251 254 261 271 265 265 258 252 252 253 249 249 248
287 287 287 290 292 294 296 295 292 297 302 306 308 311 309 310 304 299 299 298 285 269 249 239 238 237 239 243 246 247 249 251 258 264 257 258 255 255 256 254 249 245 251
286 288 289 290 292 294 292 291 296 301 305 308 311 310 307 308 288 300 302 303 298 280 247 233 234 236 238 241 244 247 250 253 255 255 248 245 249 256 253 252 249 251 252
293 293 290 289 291 292 293 294 297 302 306 309 307 306 301 300 305 312 319 289 291 278 258 239 232 234 237 241 246 249 251 251 249 245 243 244 253 261 264 262 252 246 249
292 291 290 290 291 292 294 295 300 305 307 305 300 300 300 298 292 286 284 290 284 261 254 249 245 243 243 242 240 240 244 246 246 243 241 243 248 251 255 258 259 256 254
Height
10973 10970 10967 10962 10959 10955 10951 10948 10943 10939 10935 10932 10927 10922 10917 10911 10908 10903 10897 10891 10884 10882 10881 10881 10877 10875 10879 10881 10876 10869 10862 10863 10863 10857 10865 10873 10873 10877 10882 10890 10896 10902 10907
10960 10958 10954 10949 10944 10940 10938 10934 10930 10924 10920 10915 10910 10905 10899 10894 10890 10885 10880 10874 10870 10864 10861 10861 10857 10856 10857 10859 10859 10855 10851 10851 10850 10848 10850 10858 10859 10865 10869 10875 10881 10888 10893
10949 10945 10940 10936 10934 10930 10925 10920 10915 10911 10905 10900 10894 10889 10885 10879 10872 10864 10860 10856 10851 10846 10839 10836 10834 10833 10834 10838 10837 10836 10838 10838 10838 10838 10836 10842 10846 10853 10856 10862 10868 10875 10879
10939 10936 10933 10932 10928 10921 10916 10909 10905 10898 10891 10886 10880 10873 10866 10859 10851 10843 10835 10830 10826 10819 10812 10810 10809 10811 10812 10816 10817 10817 10818 10820 10822 10823 10823 10826 10834 10839 10845 10849 10857 10863 10867
10925 10925 10924 10920 10916 10908 10901 10895 10889 10882 10875 10867 10859 10852 10846 10837 10826 10817 10809 10804 10797 10791 10787 10786 10788 10791 10792 10796 10803 10804 10804 10804 10806 10809 10811 10813 10819 10825 10831 10837 10844 10851 10857
10911 10908 10906 10902 10896 10889 10882 10876 10869 10862 10854 10847 10840 10833 10822 10811 10801 10793 10783 10778 10769 10763 10764 10764 10767 10770 10773 10779 10788 10792 10790 10787 10789 10794 10798 10800 10805 10810 10817 10824 10830 10835 10843
10889 10887 10885 10882 10876 10870 10864 10856 10850 10843 10835 10827 10818 10809 10801 10789 10777 10764 10752 10747 10743 10738 10742 10745 10748 10752 10758 10769 10774 10778 10776 10774 10775 10780 10782 10788 10792 10794 10802 10810 10816 10822 10829
10869 10868 10864 10860 10855 10848 10841 10834 10825 10817 10807 10798 10789 10779 10771 10758 10747 10737 10728 10723 10719 10719 10722 10726 10731 10736 10744 10754 10760 10761 10760 10759 10762 10766 10769 10773 10776 10781 10786 10794 10802 10809 10816
10854 10848 10842 10836 10832 10826 10817 10809 10799 10790 10781 10773 10764 10753 10743 10732 10722 10714 10707 10703 10702 10702 10705 10709 10714 10721 10730 10736 10742 10745 10745 10747 10749 10751 10754 10758 10763 10768 10773 10778 10785 10794 10801
10838 10831 10825 10819 10812 10802 10792 10783 10775 10767 10758 10748 10737 10726 10717 10710 10702 10694 10689 10686 10686 10686 10689 10694 10698 10705 10717 10723 10726 10728 10729 10733 10735 10738 10740 10745 10750 10753 10757 10763 10769 10776 10784
10820 10813 10807 10797 10788 10779 10770 10763 10754 10743 10732 10723 10714 10704 10694 10688 10681 10676 10672 10670 10670 10671 10673 10678 10683 10691 10702 10708 10712 10714 10717 10720 10721 10722 10726 10731 10736 10737 10740 10746 10753 10759 10764
10799 10791 10782 10774 10765 10757 10749 10742 10733 10720 10707 10698 10687 10680 10672 10668 10663 10659 10657 10655 10656 10658 10659 10664 10669 10679 10688 10695 10699 10702 10704 10706 10706 10709 10713 10717 10720 10722 10723 10727 10734 10740 10746
10776 10768 10761 10754 10745 10738 10730 10719 10709 10698 10683 10674 10666 10661 10656 10652 10647 10644 10643 10642 10643 10646 10648 10653 10660 10670 10679 10685 10687 10690 10694 10693 10693 10696 10699 10701 10702 10705 10708 10711 10715 10722 10727
10754 10746 10740 10732 10724 10716 10706 10696 10686 10676 10664 10655 10650 10647 10642 10637 10635 10631 10630 10630 10631 10634 10638 10644 10651 10662 10672 10676 10680 10682 10681 10680 10678 10680 10682 10683 10685 10688 10690 10694 10697 10701 10707
10732 10725 10717 10710 10702 10694 10686 10677 10662 10656 10651 10645 10637 10631 10627 10624 10622 10621 10619 10618 10619 10621 10626 10633 10637 10645 10660 10665 10669 10667 10666 10663 10660 10665 10667 10670 10672 10672 10674 10676 10679 10683 10687
10709 10703 10697 10691 10683 10675 10666 10659 10648 10639 10634 10631 10626 10620 10616 10613 10610 10610 10610 10608 10608 10610 10615 10621 10624 10632 10639 10644 10652 10648 10649 10646 10647 10651 10652 10654 10656 10658 10660 10662 10664 10666 10670
10688 10681 10676 10671 10662 10654 10646 10639 10631 10625 10620 10614 10608 10608 10606 10602 10599 10598 10598 10598 10598 10600 10601 10605 10610 10615 10619 10620 10621 10621 10628 10632 10635 10632 10630 10635 10636 10639 10644 10646 10647 10649 10653
10665 10660 10655 10649 10642 10634 10627 10621 10613 10606 10603 10601 10594 10588 10590 10589 10587 10585 10584 10584 10585 10586 10588 10591 10594 10598 10601 10604 10605 10607 10611 10616 10620 10619 10616 10616 10618 10619 10622 10627 10629 10630 10633
10643 10637 10631 10628 10624 10617 10608 10603 10595 10589 10584 10583 10583 10576 10567 10567 10568 10568 10567 10566 10567 10568 10570 10573 10577 10581 10585 10588 10593 10595 10598 10599 10599 10599 10597 10597 10599 10599 10601 10604 10608 10609 10612
10620 10616 10612 10607 10604 10599 10592 10585 10579 10572 10567 10564 10562 10562 10557 10545 10534 10542 10545 10542 10539 10544 10549 10553 10556 10560 10565 10571 10575 10579 10581 10581 10581 10579 10579 10578 10576 10576 10579 10582 10585 10589 10594
10599 10596 10592 10589 10585 10580 10575 10568 10562 10556 10552 10548 10542 10539 10533 10527 10519 10511 10512 10512 10511 10513 10520 10529 10535 10539 10546 10552 10556 10557 10560 10563 10563 10563 10560 10559 10559 10559 10562 10564 10567 10571 10576
10579 10576 10573 10571 10565 10562 10558 10553 10548 10543 10538 10533 10527 10521 10515 10507 10499 10493 10490 10488 10486 10489 10494 10502 10510 10519 10528 10534 10537 10540 10543 10544 10546 10546 10545 10544 10544 10546 10547 10549 10551 10556 10560
10560 10558 10557 10553 10548 10545 10542 10539 10535 10531 10526 10520 10513 10508 10501 10494 10488 10483 10479 10476 10473 10474 10477 10483 10492 10501 10510 10517 10520 10523 10527 10529 10530 10531 10533 10533 10533 10533 10533 10533 10536 10539 10541
10545 10541 10540 10535 10533 10532 10529 10527 10524 10519 10514 10510 10504 10496 10491 10488 10484 10479 10475 10470 10467 10467 10468 10472 10480 10486 10493 10499 10504 10507 10510 10512 10514 10515 10517 10518 10518 10520 10521 10520 10521 10522 10524
10529 10528 10526 10524 10522 10520 10518 10517 10514 10509 10504 10498 10492 10489 10485 10481 10478 10474 10470 10469 10467 10465 10465 10467 10470 10474 10478 10482 10486 10489 10491 10494 10497 10499 10501 10501 10503 10503 10504 10505 10506 10506 10507
10518 10517 10515 10514 10513 10511 10509 10506 10503 10498 10493 10488 10484 10481 10478 10474 10471 10468 10467 10466 10464 10464 10464 10464 10465 10466 10468 10471 10473 10476 10478 10481 10483 10483 10485 10486 10487 10488 10488 10489 10488 10488 10488